Powrót do katalogu

NAVSTAR 13

USA 35

LostNawigacjaMEO
NORAD 19802·PAYLOAD·🇺🇸 United States

Wystrzelony Feb 14, 1989 z Cape Canaveral Space Force Station

Loading…

Następne Przeloty (najbliższe 24 godziny)

TLE

NieaktualneSource: Space-Track

Epoka: Aug 4, 2026, 23:20 UTC

1 19802U 89013A   26216.97267242 -.00000015  00000-0  00000+0 0  9993
2 19802  55.0592  92.9874 0043310 250.6859 291.4816  1.85325503259170

Śledź NAVSTAR 13 w czasie rzeczywistym z AllMySat

Download on the App Store